Overview Statistics Trail Chart Weather Telemetry Raw packets
 

This is the latest recevied weather packets stored in our database for station/object VE6HFD-WX. If no packets are shown the sender has not sent any weather packets the latest 10 day(s).

<< 96 97 98 99 100 101 102 >>
Time Temp. Humidity Pressure Rain* Wind** Luminosity Snow
1787860986 32.78° C 19% 1004.5 hPa 0 mm - - -
1787860656 32.22° C 18% 1004.5 hPa 0 mm - - -
1787860326 32.22° C 17% 1004.5 hPa 0 mm - - -
1787859996 31.67° C 19% 1004.6 hPa 0 mm - - -
1787859666 31.67° C 19% 1004.6 hPa 0 mm - - -
1787859336 31.11° C 22% 1004.7 hPa 0 mm - - -
1787859006 30.56° C 23% 1004.8 hPa 0 mm - - -
1787858676 30° C 24% 1004.8 hPa 0 mm - - -
1787858346 30° C 24% 1004.9 hPa 0 mm - - -
1787858016 30.56° C 22% 1004.9 hPa 0 mm - - -
1787857686 30.56° C 23% 1005 hPa 0 mm - - -
1787857356 31.11° C 25% 1005 hPa 0 mm - - -
1787857026 30.56° C 25% 1005 hPa 0 mm - - -
1787856696 30.56° C 27% 1005.1 hPa 0 mm - - -
1787856366 30° C 28% 1005.2 hPa 0 mm - - -
1787856066 30° C 29% 1005.2 hPa 0 mm - - -
1787855736 29.44° C 31% 1005.4 hPa 0 mm - - -
1787855406 28.89° C 33% 1005.5 hPa 0 mm - - -
1787855076 28.33° C 33% 1005.6 hPa 0 mm - - -
1787854776 27.78° C 33% 1005.7 hPa 0 mm - - -
1787854446 28.33° C 33% 1005.8 hPa 0 mm - - -
1787854116 28.33° C 32% 1005.9 hPa 0 mm - - -
1787853786 27.78° C 34% 1005.9 hPa 0 mm - - -
1787853456 27.78° C 37% 1006.1 hPa 0 mm - - -
1787853126 27.22° C 37% 1006.1 hPa 0 mm - - -

* Rain latest hour (hover to see other rain measurements)
** Current wind speed in m/s (hover to see current wind gust speed)